Stations météo

Publicité
Niort, France (7330): Température de l'air & dewpoint: 14.07.2018 14:00:00 - 20.07.2018 14:00:00 (CEST)Niort, France (7330): Température de l'air 5cm: 14.07.2018 14:00:00 - 20.07.2018 14:00:00 (CEST)Niort, France (7330): Température de l'air -20cm & Température de l'air -100cm: 14.07.2018 14:00:00 - 20.07.2018 14:00:00 (CEST)Niort, France (7330): Vitesse du vent & gusts: 14.07.2018 14:00:00 - 20.07.2018 14:00:00 (CEST)Niort, France (7330): Direction du vent: 14.07.2018 14:00:00 - 20.07.2018 14:00:00 (CEST)Niort, France (7330): reduced air pressure: 14.07.2018 14:00:00 - 20.07.2018 14:00:00 (CEST)Niort, France (7330): visibility: 14.07.2018 14:00:00 - 20.07.2018 14:00:00 (CEST)Niort, France (7330): Ensoleillement: 14.07.2018 14:00:00 - 20.07.2018 14:00:00 (CEST)Niort, France (7330): Quantités de précipitations: 14.07.2018 14:00:00 - 20.07.2018 14:00:00 (CEST)
Date & Time tt [°C] td [°C] tt 5cm [°C] tt -20cm [°C] tt -100cm [°C] ff [km/h] ff [knt] fx [km/h] fx [knt] dd ppp [hPa] vv [km] sd [min] rr [mm]
20.07.2018 14:00:00 24,0 13,8 24,8 22,0 20,5 10 5 26 14 W 1016,2 20 38 0,0
20.07.2018 13:00:00 22,7 14,3 24,2 22,1 20,5 11 6 27 15 WNW 1016,6 20 44 0,0
20.07.2018 12:00:00 21,2 15,5 22,3 22,0 20,5 9 5 26 14 W 1016,8 13 36 0,0
20.07.2018 11:00:00 18,8 16,4 18,8 22,1 20,5 7 4 15 8 NW 1016,9 7 3 0,0
20.07.2018 10:00:00 18,1 15,9 19,3 22,1 20,5 8 5 13 7 NW 1016,9 12 8 0,0
20.07.2018 09:00:00 19,0 15,3 17,8 22,1 20,5 3 2 8 5 NW 1016,7 16 55 0,0
20.07.2018 08:00:00 17,3 15,5 16,9 22,1 20,5 3 1 10 6 NNW 1016,5 18 0 0,0
20.07.2018 07:00:00 17,3 15,6 17,0 22,1 20,5 6 3 11 6 NNW 1016,0 15 0 0,0
20.07.2018 06:00:00 17,4 15,7 17,0 22,1 20,5 4 2 11 6 NNW 1015,9 20 0 0,0
20.07.2018 05:00:00 17,3 16,8 16,8 22,1 20,5 5 3 10 5 W 1016,4 9 0 0,0
20.07.2018 04:00:00 17,1 16,5 15,9 22,1 20,5 3 2 9 5 SSW 1016,6 2,9 0 0,0
20.07.2018 03:00:00 17,6 17,1 17,2 22,1 20,5 7 4 12 6 WSW 1016,7 6 0 0,0
20.07.2018 02:00:00 17,8 17,2 17,4 22,1 20,5 9 5 14 7 W 1016,8 14 0 0,0
20.07.2018 01:00:00 17,8 17,0 17,0 22,0 20,5 5 3 16 9 SSW 1017,0 19 0 0,0
20.07.2018 00:00:00 17,6 16,8 16,9 22,1 20,5 9 5 21 12 E 1016,6 7 0 2,4
19.07.2018 23:00:00 17,5 16,4 16,9 22,0 20,5 12 7 25 13 NE 1016,0 20 0 5,1
19.07.2018 22:00:00 18,5 16,3 17,3 22,0 20,5 10 6 22 12 W 1018,0 15 0 0,8
19.07.2018 21:00:00 18,3 16,3 16,8 22,0 20,5 13 7 44 24 NW 1016,5 20 0 5,7
19.07.2018 20:00:00 21,2 16,2 18,8 22,0 20,5 10 6 30 16 NNW 1016,3 18 0 0,0
19.07.2018 19:00:00 23,3 15,6 23,8 22,0 20,5 22 12 40 21 N 1015,8 20 13 0,0
19.07.2018 18:00:00 23,9 16,7 24,2 22,0 20,5 19 11 39 21 NNW 1015,5 20 7 0,0
19.07.2018 17:00:00 23,5 18,2 20,1 22,0 20,5 20 11 40 21 NNW 1015,4 20 8 4,3
19.07.2018 16:00:00 22,3 18,1 19,8 22,1 20,5 31 17 53 29 W 1015,9 8 0 3,9
19.07.2018 15:00:00 30,3 13,1 33,6 22,0 20,5 9 5 18 10 NE 1014,9 20 9 0,0
19.07.2018 14:00:00 30,6 13,8 33,2 22,1 20,5 4 2 19 10 NNE 1015,4 19 16 0,0
19.07.2018 13:00:00 30,1 13,4 33,7 22,1 20,5 9 5 22 12 S 1015,7 20 44 0,0
19.07.2018 12:00:00 30,3 14,0 31,9 22,1 20,5 5 3 12 6 SSE 1015,9 19 60 0,0
19.07.2018 11:00:00 28,3 14,2 28,8 22,0 20,5 6 4 13 7 E 1015,9 20 60 0,0
19.07.2018 10:00:00 26,2 14,6 25,0 22,1 20,5 9 5 19 10 ENE 1016,2 20 60 0,0
19.07.2018 09:00:00 23,2 15,3 20,5 22,1 20,5 13 7 19 10 NE 1016,2 20 60 0,0
19.07.2018 08:00:00 20,3 15,1 16,3 22,1 20,5 10 5 16 9 NE 1016,2 20 38 0,0
19.07.2018 07:00:00 17,2 14,5 14,6 22,1 20,5 10 5 14 8 ENE 1016,2 20 0 0,0
19.07.2018 06:00:00 17,2 14,1 13,2 22,1 20,5 6 3 9 5 NNE 1016,2 20 0 0,0
19.07.2018 05:00:00 16,1 12,8 13,0 22,0 20,5 6 4 9 5 NE 1016,3 20 0 0,0
19.07.2018 04:00:00 17,7 13,8 13,7 22,0 20,5 4 2 6 4 NW 1016,4 20 0 0,0
19.07.2018 03:00:00 17,9 14,0 14,5 22,0 20,5 0 0 6 3 N 1016,6 20 0 0,0
19.07.2018 02:00:00 19,1 13,9 15,4 22,0 20,5 5 3 8 4 NNE 1016,6 20 0 0,0
19.07.2018 01:00:00 20,7 14,6 16,3 22,0 20,5 6 3 9 5 NNW 1016,8 20 0 0,0
19.07.2018 00:00:00 21,3 14,2 16,5 22,0 20,5 4 2 8 4 N 1016,9 20 0 0,0
18.07.2018 23:00:00 22,7 14,3 19,7 22,0 20,5 5 3 9 5 NE 1016,6 20 0 0,0
18.07.2018 22:00:00 24,7 14,2 22,1 22,0 20,5 5 3 9 5 N 1016,1 20 18 0,0
18.07.2018 21:00:00 27,2 14,2 26,8 22,0 20,5 6 3 15 8 N 1015,6 20 60 0,0
18.07.2018 20:00:00 27,8 14,1 27,0 22,0 20,5 13 7 24 13 NNW 1015,4 20 35 0,0
18.07.2018 19:00:00 28,2 14,1 29,9 22,0 20,5 14 8 23 12 WNW 1015,2 20 51 0,0
18.07.2018 18:00:00 28,1 15,0 27,6 22,0 20,5 11 6 24 13 NNW 1015,2 20 9 0,0
18.07.2018 17:00:00 28,8 14,2 30,4 22,0 20,5 10 5 16 9 WNW 1016,0 20 8 0,0
18.07.2018 16:00:00 28,2 13,7 31,3 22,1 20,5 10 5 22 12 N 1015,7 20 28 0,0
18.07.2018 15:00:00 28,1 14,0 31,6 22,1 20,5 5 3 18 10 NE 1015,8 20 35 0,0
18.07.2018 14:00:00 28,0 13,9 31,6 22,1 20,5 5 3 24 13 SE 1016,0 20 39 0,0
18.07.2018 13:00:00 26,8 13,2 29,9 22,1 20,5 6 4 16 8 NE 1016,7 20 52 0,0
18.07.2018 12:00:00 25,8 14,0 27,0 22,1 20,5 6 3 13 7 ESE 1017,2 20 47 0,0
18.07.2018 11:00:00 24,1 13,9 25,5 22,2 20,5 4 2 14 7 E 1017,4 19 54 0,0
18.07.2018 10:00:00 22,1 13,4 20,7 22,2 20,5 5 3 11 6 E 1017,7 20 57 0,0
18.07.2018 09:00:00 18,9 12,4 17,0 22,2 20,5 7 4 16 8 NE 1018,0 20 40 0,0
18.07.2018 08:00:00 15,7 12,8 12,9 22,2 20,5 3 2 8 4 ENE 1017,9 20 60 0,0
18.07.2018 07:00:00 12,9 12,1 9,1 22,2 20,5 8 4 10 5 NE 1018,0 20 8 0,0
18.07.2018 06:00:00 11,9 11,0 9,1 22,2 20,5 4 2 6 3 NE 1018,2 20 0 0,0
18.07.2018 05:00:00 11,9 10,5 9,2 22,2 20,4 3 2 6 3 NNE 1018,4 20 0 0,0
18.07.2018 04:00:00 12,7 11,1 9,7 22,2 20,5 0 0 5 3 N 1018,6 20 0 0,0
18.07.2018 03:00:00 14,2 12,8 10,3 22,2 20,4 4 2 5 3 WSW 1018,8 20 0 0,0
18.07.2018 02:00:00 14,5 11,5 10,6 22,2 20,4 2 1 7 4 S 1018,9 20 0 0,0
18.07.2018 01:00:00 16,6 11,7 12,1 22,2 20,5 4 2 9 5 WNW 1019,2 20 0 0,0
18.07.2018 00:00:00 17,3 12,0 14,1 22,2 20,5 5 3 15 8 WNW 1019,4 20 0 0,0
17.07.2018 23:00:00 19,0 12,7 17,4 22,2 20,5 10 5 22 12 W 1019,4 20 0 0,0
17.07.2018 22:00:00 20,2 12,7 18,9 22,2 20,4 13 7 26 14 WNW 1018,9 20 21 0,0
17.07.2018 21:00:00 23,3 12,6 24,3 22,2 20,4 19 10 26 14 WNW 1018,4 20 39 0,0
17.07.2018 20:00:00 23,6 12,9 24,2 22,2 20,4 12 7 23 12 SW 1018,4 20 11 0,0
17.07.2018 19:00:00 24,5 14,0 25,8 22,2 20,5 15 8 28 15 S 1018,5 20 44 0,0
17.07.2018 18:00:00 24,0 14,1 25,9 22,3 20,4 16 9 29 16 SSW 1019,0 20 13 0,0
17.07.2018 17:00:00 24,3 13,8 27,2 22,3 20,4 16 9 34 18 SSW 1019,4 20 3 0,0
17.07.2018 16:00:00 24,3 13,2 27,5 22,3 20,4 18 10 37 20 WSW 1019,8 20 25 0,0
17.07.2018 15:00:00 24,1 13,0 26,7 22,3 20,4 18 10 33 18 WSW 1019,8 20 0 0,0
17.07.2018 14:00:00 23,9 13,1 26,7 22,3 20,4 22 12 39 21 WSW 1020,1 20 7 0,0
17.07.2018 13:00:00 23,7 13,0 27,0 22,3 20,4 21 11 42 23 WNW 1020,2 20 38 0,0
17.07.2018 12:00:00 23,6 12,9 25,1 22,3 20,4 19 11 32 17 W 1020,2 20 44 0,0
17.07.2018 11:00:00 22,6 13,6 23,4 22,3 20,4 12 7 29 16 WSW 1020,1 20 45 0,0
17.07.2018 10:00:00 21,8 13,7 21,3 22,3 20,4 15 8 29 16 WSW 1020,0 20 45 0,0
17.07.2018 09:00:00 19,7 15,1 18,1 22,3 20,4 12 7 19 10 WSW 1020,1 20 39 0,0
17.07.2018 08:00:00 17,6 16,5 16,2 22,3 20,4 7 4 12 6 SW 1019,9 20 19 0,0
17.07.2018 07:00:00 16,3 15,7 15,1 22,3 20,4 10 5 13 7 SW 1019,7 19 9 0,0
17.07.2018 06:00:00 16,6 16,0 15,5 22,3 20,4 8 4 11 6 SW 1019,3 19 0 0,0
17.07.2018 05:00:00 16,9 16,3 15,6 22,3 20,4 9 5 12 6 SW 1019,2 20 0 0,0
17.07.2018 04:00:00 17,1 16,3 14,9 22,3 20,4 7 4 11 6 SW 1019,1 20 0 0,0
17.07.2018 03:00:00 16,9 15,9 15,8 22,3 20,4 8 4 10 6 SW 1019,2 20 0 0,0
17.07.2018 02:00:00 17,6 16,1 16,5 22,3 20,4 9 5 16 9 WSW 1019,4 20 0 0,0
17.07.2018 01:00:00 18,9 16,1 17,8 22,3 20,4 11 6 26 14 W 1019,4 20 0 0,0
17.07.2018 00:00:00 19,9 16,1 18,4 22,3 20,4 15 8 29 16 W 1019,1 20 0 0,0
16.07.2018 23:00:00 20,7 15,3 19,5 22,3 20,4 17 9 32 17 W 1018,5 20 0 0,0
16.07.2018 22:00:00 21,7 14,1 20,8 22,3 20,4 16 9 29 16 WSW 1017,8 20 23 0,0
16.07.2018 21:00:00 23,5 13,7 23,7 22,2 20,3 21 12 43 23 W 1017,1 20 44 0,0
16.07.2018 20:00:00 25,7 13,5 26,6 22,2 20,3 27 15 48 26 W 1016,2 20 60 0,0
16.07.2018 19:00:00 28,1 14,0 28,9 22,2 20,4 23 13 48 26 W 1015,0 20 54 0,0
16.07.2018 18:00:00 29,0 13,6 29,4 22,2 20,3 32 18 50 27 W 1014,4 19 40 0,0
16.07.2018 17:00:00 29,2 14,2 30,5 22,3 20,3 14 7 45 25 WNW 1013,9 20 6 0,0
16.07.2018 16:00:00 29,5 14,1 29,8 22,2 20,3 17 9 32 18 WNW 1013,9 20 12 0,0
16.07.2018 15:00:00 28,9 15,1 29,7 22,2 20,3 10 5 22 12 WNW 1014,1 20 15 0,0
16.07.2018 14:00:00 28,1 15,0 30,0 22,3 20,3 10 6 19 10 SSW 1014,4 19 41 0,0
16.07.2018 13:00:00 27,7 15,7 28,8 22,2 20,3 7 4 16 9 W 1014,6 20 60 0,0
16.07.2018 12:00:00 25,4 15,7 27,9 22,2 20,3 8 5 19 10 S 1015,0 20 60 0,0
16.07.2018 11:00:00 24,7 15,1 25,0 22,3 20,3 6 4 12 7 SW 1014,6 20 60 0,0
16.07.2018 10:00:00 22,2 14,8 21,0 22,2 20,3 7 4 18 10 SW 1014,6 20 15 0,0
16.07.2018 09:00:00 20,6 14,5 20,0 22,2 20,3 8 4 14 8 SSW 1014,4 20 12 0,0
16.07.2018 08:00:00 20,0 14,4 16,9 22,2 20,3 3 2 7 4 SSW 1014,0 20 22 0,0
16.07.2018 07:00:00 19,3 13,7 16,2 22,2 20,3 3 2 12 6 SSE 1013,8 20 0 0,0
16.07.2018 06:00:00 20,4 14,1 19,5 22,1 20,3 9 5 19 10 S 1014,1 20 0 0,0
16.07.2018 05:00:00 21,0 14,4 19,6 22,1 20,3 10 5 23 13 WNW 1013,8 20 0 0,0
16.07.2018 04:00:00 22,0 14,4 20,3 22,1 20,3 16 9 32 17 WSW 1014,5 20 0 0,0
16.07.2018 03:00:00 20,7 14,3 17,1 22,1 20,3 15 8 29 16 SSW 1014,9 20 0 0,0
16.07.2018 02:00:00 20,3 13,3 17,1 22,1 20,3 6 3 9 5 WSW 1014,1 20 0 0,0
16.07.2018 01:00:00 22,0 13,1 17,8 22,0 20,3 7 4 11 6 NNE 1013,9 20 0 0,0
16.07.2018 00:00:00 22,8 13,3 18,8 22,1 20,3 4 2 9 5 NE 1014,2 20 0 0,0
15.07.2018 23:00:00 24,8 13,0 22,2 22,0 20,3 5 3 13 7 N 1013,9 20 0 0,0
15.07.2018 22:00:00 27,0 13,0 24,7 22,0 20,2 7 4 20 11 N 1013,5 20 24 0,0
15.07.2018 21:00:00 28,9 13,2 28,4 22,0 20,3 11 6 22 12 N 1013,1 20 43 0,0
15.07.2018 20:00:00 29,5 13,3 29,0 21,9 20,2 9 5 25 14 N 1012,6 20 9 0,0
15.07.2018 19:00:00 31,4 13,2 34,4 21,9 20,2 13 7 26 14 N 1012,6 20 60 0,0
15.07.2018 18:00:00 32,4 12,6 36,8 22,0 20,3 12 7 32 18 NNW 1012,5 20 60 0,0
15.07.2018 17:00:00 32,4 12,6 34,5 22,0 20,3 13 7 24 13 N 1012,9 20 54 0,0
15.07.2018 16:00:00 31,7 12,5 34,6 22,0 20,3 7 4 18 10 N 1013,3 20 50 0,0
15.07.2018 15:00:00 31,3 13,1 33,5 22,0 20,2 8 5 15 8 E 1013,7 20 35 0,0
15.07.2018 14:00:00 31,7 13,0 33,1 22,0 20,2 4 2 19 10 W 1014,0 20 51 0,0
15.07.2018 13:00:00 30,9 12,8 33,7 22,0 20,2 8 4 17 9 E 1014,6 20 60 0,0
15.07.2018 12:00:00 29,9 15,2 30,8 22,0 20,2 4 2 14 8 NW 1015,0 20 60 0,0
15.07.2018 11:00:00 28,2 16,1 28,0 22,0 20,2 5 3 12 6 ENE 1015,1 20 60 0,0
15.07.2018 10:00:00 25,3 15,6 24,0 22,0 20,2 7 4 21 12 NE 1015,3 20 60 0,0
15.07.2018 09:00:00 22,6 15,4 21,9 21,9 20,2 13 7 19 11 NE 1015,2 20 58 0,0
15.07.2018 08:00:00 21,0 14,9 19,1 22,0 20,2 7 4 14 8 ENE 1015,1 20 51 0,0
15.07.2018 07:00:00 19,2 14,5 15,6 22,0 20,2 5 3 11 6 ENE 1015,1 20 10 0,0
15.07.2018 06:00:00 18,7 14,2 17,1 22,0 20,2 8 4 14 8 NE 1015,1 20 0 0,0
15.07.2018 05:00:00 19,5 14,1 18,0 21,9 20,2 6 4 18 10 NE 1015,0 20 0 0,0
15.07.2018 04:00:00 20,1 14,0 18,4 21,9 20,2 10 5 16 8 NE 1015,1 20 0 0,0
15.07.2018 03:00:00 21,0 13,9 19,1 21,9 20,2 8 4 16 9 NE 1015,5 20 0 0,0
15.07.2018 02:00:00 21,1 14,0 18,6 21,9 20,2 8 5 13 7 NE 1015,8 20 0 0,0
15.07.2018 01:00:00 21,5 13,7 19,3 21,9 20,2 9 5 12 7 NE 1016,0 20 0 0,0
15.07.2018 00:00:00 22,4 13,2 20,4 21,9 20,2 7 4 11 6 NNE 1016,0 20 0 0,0
14.07.2018 23:00:00 23,7 13,0 19,4 21,9 20,2 7 4 11 6 NNE 1016,1 20 0 0,0
14.07.2018 22:00:00 25,3 12,8 20,6 21,8 20,2 4 2 10 5 NNE 1015,6 20 0 0,0
14.07.2018 21:00:00 27,9 12,7 26,7 21,9 20,2 6 3 9 5 NNE 1015,3 20 19 0,0
14.07.2018 20:00:00 29,5 12,4 31,4 21,9 20,2 5 3 15 8 ENE 1015,3 20 55 0,0
14.07.2018 19:00:00 30,7 12,1 36,0 21,8 20,2 5 3 15 8 E 1015,5 20 60 0,0
14.07.2018 18:00:00 30,6 12,5 30,8 21,9 20,2 9 5 16 9 E 1015,9 20 23 0,0
14.07.2018 17:00:00 29,3 11,8 31,2 21,9 20,2 7 4 21 11 NE 1016,2 20 1 0,0
14.07.2018 16:00:00 29,9 12,3 33,3 21,9 20,2 7 4 19 11 NNW 1016,5 20 30 0,0
14.07.2018 15:00:00 30,0 11,0 34,3 21,9 20,2 9 5 21 11 ESE 1017,0 20 35 0,0
14.07.2018 14:00:00 29,6 10,7 33,2 21,9 20,2 6 4 21 11 NNE 1017,3 20 43 0,0

tt = Température de l'air
td = dewpoint
tt 5cm = Température de l'air 5cm
tt -20cm = Température de l'air -20cm
tt -100cm = Température de l'air -100cm
ff = Vitesse du vent
fx = gusts
dd = Direction du vent
ppp = reduced air pressure
vv = visibility
sd = Ensoleillement
rr = Quantités de précipitations

stations d'obs. à proximité